Regional Weather Roundup
Issued by NWS

Home | Current Version | Previous Version | Graphics & Text | Print | Product List | Glossary On
Versions: 1 2 3 4 5 6 7 8 9 10 11 12 13 14 15 16 17 18 19 20 21 22 23 24 25 26 27 28 29 30 31 32 33 34 35 36 37 38 39 40 41 42 43 44 45 46 47 48 49 50
666
ASUS45 KBOI 230910
RWRID

IDAHO REGIONAL WEATHER ROUNDUP
NATIONAL WEATHER SERVICE BOISE ID
300 AM MDT TUE MAY 23 2017

NOTE: "FAIR" INDICATES FEW OR NO CLOUDS BELOW 12000 FEET
WITH NO SIGNIFICANT WEATHER AND/OR OBSTRUCTIONS TO VISIBILITY

IDZ012-014-231000-
SOUTHWEST IDAHO


CITY           SKY/WX    TMP DP  RH WIND       PRES   REMARKS
BOISE          CLEAR     57  41  55 SE7       30.10S
CALDWELL       CLEAR     55  46  71 CALM        N/A
MOUNTAIN HOME  CLEAR     54  39  57 W7        30.10F
$$

IDZ016-017-231000-
SOUTHCENTRAL IDAHO


CITY           SKY/WX    TMP DP  RH WIND       PRES   REMARKS
BURLEY         CLEAR     50  42  74 S3        30.17S
JEROME         CLEAR     56  36  47 S3        30.17S
TWIN FALLS     CLEAR     55  37  50 S12       30.17S
$$

IDZ019>023-231000-
SOUTHEAST IDAHO


CITY           SKY/WX    TMP DP  RH WIND       PRES   REMARKS
IDAHO FALLS    CLEAR     44  38  79 N7        30.25R
POCATELLO      CLEAR     46  41  82 NE6       30.21R
REXBURG        CLEAR     45  37  73 NE7       30.25R
$$

IDZ006-010-011-018-031-032-231000-
CENTRAL IDAHO MOUNTAINS


CITY           SKY/WX    TMP DP  RH WIND       PRES   REMARKS
MCCALL         CLEAR     44  35  70 CALM      30.21F
HAILEY         CLEAR     50  32  50 NW9       30.26S
STANLEY          N/A     35  28  75 S5        30.32F WCI  31
SALMON         CLEAR     46  39  76 CALM      30.20R
CHALLIS        CLEAR     48  38  68 CALM      30.24S
$$

IDZ002-004-006-007-026-231000-
NORTHERN IDAHO


CITY           SKY/WX    TMP DP  RH WIND       PRES   REMARKS
LEWISTON       CLEAR     58  47  66 CALM      30.06F
LOWELL           N/A     52  48  86 CALM      30.15S
COEUR D`ALENE  CLEAR     54  49  83 E5        30.10F
MULLAN PASS    CLEAR     54  34  46 NW5       30.25F
$$




USA.gov is the U.S. government's official web portal to all federal, state and local government web resources and services.